When you browse on this site, cookies collect data to enhance your experience and personalize the content and advertising you see.
Visit our Privacy Policy to learn more. By continuing to use the site, you agree to this use of cookies and data.
  • In Deutschland
  • Länderverzeichnis
  • Für 7 Tage
  • Wassertemperatur
  • Wetterkarte
  • Widgets
  • user-avatar
    Anmelden

    Stündliche Wetter Linz

    Heute, 18 August, Sonntag

    Zeit Temperatur Niederschläge Wind Luftdruck Luftfeuchtigkeit
    00:00 +21°C° 0 mm 1 m/S 733 mmHg 69%
    01:00 +21°C° 0 mm 1 m/S 732 mmHg 71%
    02:00 +21°C° 0 mm 1 m/S 732 mmHg 71%
    03:00 +20°C° 0 mm 1 m/S 732 mmHg 71%
    04:00 +20°C° 0 mm 1 m/S 732 mmHg 72%
    05:00 +21°C° 0 mm 1 m/S 732 mmHg 72%
    06:00 +21°C° 0 mm 1 m/S 732 mmHg 73%
    07:00 +22°C° 0 mm 1 m/S 732 mmHg 71%
    08:00 +24°C° 0 mm 1 m/S 732 mmHg 65%
    09:00 +26°C° 0 mm 1 m/S 732 mmHg 59%
    10:00 +28°C° 0 mm 1 m/S 732 mmHg 54%
    11:00 +29°C° 0 mm 1 m/S 732 mmHg 51%
    12:00 +31°C° 0 mm 1 m/S 731 mmHg 48%
    13:00 +32°C° 0 mm 1 m/S 731 mmHg 45%
    14:00 +32°C° 0 mm 1 m/S 731 mmHg 45%
    15:00 +32°C° 0 mm 1 m/S 731 mmHg 46%
    16:00 +32°C° 0 mm 1 m/S 731 mmHg 47%
    17:00 +30°C° 0 mm 1 m/S 731 mmHg 51%
    18:00 +28°C° 0 mm 1 m/S 731 mmHg 56%
    19:00 +27°C° 0 mm 1 m/S 731 mmHg 61%
    20:00 +26°C° 0 mm 1 m/S 731 mmHg 63%
    21:00 +25°C° 0 mm 1 m/S 731 mmHg 65%
    22:00 +24°C° 0 mm 1 m/S 731 mmHg 67%
    23:00 +23°C° 0 mm 1 m/S 732 mmHg 69%

    Morgen, 19 August, Montag

    Zeit Temperatur Niederschläge Wind Luftdruck Luftfeuchtigkeit
    00:00 +23°C° 0 mm 1 m/S 732 mmHg 72%
    01:00 +22°C° 0 mm 1 m/S 732 mmHg 74%
    02:00 +20°C° 0.5 mm 2 m/S 732 mmHg 81%
    03:00 +20°C° 0.5 mm 2 m/S 733 mmHg 87%
    04:00 +19°C° 0.5 mm 3 m/S 733 mmHg 94%
    05:00 +19°C° 0.2 mm 2 m/S 733 mmHg 93%
    06:00 +21°C° 0.2 mm 1 m/S 734 mmHg 93%
    07:00 +21°C° 0.2 mm 1 m/S 734 mmHg 92%
    08:00 +21°C° 1 mm 1 m/S 734 mmHg 92%
    09:00 +20°C° 1 mm 2 m/S 735 mmHg 92%
    10:00 +20°C° 1 mm 3 m/S 735 mmHg 92%
    11:00 +21°C° 0.5 mm 2 m/S 735 mmHg 86%
    12:00 +23°C° 0.5 mm 2 m/S 736 mmHg 81%
    13:00 +23°C° 0.5 mm 1 m/S 736 mmHg 75%
    14:00 +24°C° 0 mm 1 m/S 736 mmHg 72%
    15:00 +25°C° 0 mm 1 m/S 736 mmHg 68%
    16:00 +25°C° 0 mm 1 m/S 735 mmHg 64%
    17:00 +24°C° 0 mm 1 m/S 736 mmHg 69%
    18:00 +23°C° 0 mm 1 m/S 736 mmHg 75%
    19:00 +19°C° 0 mm 0 m/S 736 mmHg 80%
    20:00 +19°C° 0.1 mm 0 m/S 736 mmHg 81%
    21:00 +19°C° 0.1 mm 0 m/S 736 mmHg 82%
    22:00 +19°C° 0.1 mm 0 m/S 737 mmHg 83%
    23:00 +18°C° 0 mm 0 m/S 736 mmHg 83%

    übermorgen, 20 August, Dienstag

    Zeit Temperatur Niederschläge Wind Luftdruck Luftfeuchtigkeit
    00:00 +20°C° 0 mm 1 m/S 736 mmHg 84%
    01:00 +20°C° 0 mm 1 m/S 736 mmHg 85%
    02:00 +19°C° 0 mm 1 m/S 736 mmHg 87%
    03:00 +19°C° 0 mm 1 m/S 736 mmHg 89%
    04:00 +18°C° 0 mm 1 m/S 736 mmHg 91%
    05:00 +19°C° 0 mm 1 m/S 736 mmHg 89%
    06:00 +20°C° 0 mm 1 m/S 736 mmHg 88%
    07:00 +21°C° 0 mm 1 m/S 737 mmHg 86%
    08:00 +21°C° 0 mm 2 m/S 736 mmHg 81%
    09:00 +23°C° 0 mm 2 m/S 736 mmHg 76%
    10:00 +25°C° 0 mm 2 m/S 736 mmHg 71%
    11:00 +26°C° 0.1 mm 3 m/S 736 mmHg 68%
    12:00 +27°C° 0.1 mm 3 m/S 736 mmHg 65%
    13:00 +28°C° 0.1 mm 3 m/S 735 mmHg 61%
    14:00 +28°C° 0.2 mm 2 m/S 735 mmHg 63%
    15:00 +28°C° 0.2 mm 2 m/S 735 mmHg 64%
    16:00 +28°C° 0.2 mm 2 m/S 734 mmHg 66%
    17:00 +27°C° 0.3 mm 2 m/S 734 mmHg 73%
    18:00 +25°C° 0.3 mm 2 m/S 734 mmHg 79%
    19:00 +24°C° 0.3 mm 2 m/S 735 mmHg 86%
    20:00 +21°C° 0.4 mm 3 m/S 735 mmHg 89%
    21:00 +20°C° 0.4 mm 4 m/S 736 mmHg 91%
    22:00 +19°C° 0.4 mm 5 m/S 737 mmHg 94%
    23:00 +17°C° 0.3 mm 5 m/S 737 mmHg 94%

    21 August, Mittwoch

    Zeit Temperatur Niederschläge Wind Luftdruck Luftfeuchtigkeit
    00:00 +17°C° 0.3 mm 4 m/S 737 mmHg 93%
    01:00 +15°C° 0.3 mm 4 m/S 738 mmHg 93%
    02:00 +16°C° 0.1 mm 3 m/S 738 mmHg 94%
    03:00 +16°C° 0.1 mm 2 m/S 739 mmHg 95%
    04:00 +16°C° 0.1 mm 2 m/S 739 mmHg 95%
    05:00 +15°C° 0.1 mm 2 m/S 739 mmHg 95%
    06:00 +15°C° 0.1 mm 2 m/S 739 mmHg 95%
    07:00 +15°C° 0.1 mm 1 m/S 740 mmHg 95%
    08:00 +16°C° 0.1 mm 1 m/S 740 mmHg 93%
    09:00 +16°C° 0.1 mm 1 m/S 740 mmHg 91%
    10:00 +18°C° 0.1 mm 1 m/S 740 mmHg 88%
    11:00 +18°C° 0.1 mm 1 m/S 740 mmHg 86%
    12:00 +19°C° 0.1 mm 1 m/S 740 mmHg 84%
    13:00 +19°C° 0.1 mm 1 m/S 740 mmHg 81%
    14:00 +20°C° 0 mm 1 m/S 740 mmHg 78%
    15:00 +21°C° 0 mm 1 m/S 740 mmHg 74%
    16:00 +21°C° 0 mm 1 m/S 739 mmHg 70%
    17:00 +21°C° 0 mm 1 m/S 740 mmHg 74%
    18:00 +20°C° 0 mm 1 m/S 740 mmHg 78%
    19:00 +19°C° 0 mm 1 m/S 740 mmHg 82%
    20:00 +18°C° 0 mm 1 m/S 740 mmHg 84%
    21:00 +18°C° 0 mm 1 m/S 740 mmHg 86%
    22:00 +16°C° 0 mm 2 m/S 740 mmHg 89%
    23:00 +16°C° 0 mm 2 m/S 740 mmHg 90%

    22 August, Donnerstag

    Zeit Temperatur Niederschläge Wind Luftdruck Luftfeuchtigkeit
    00:00 +15°C° 0 mm 1 m/S 740 mmHg 92%
    01:00 +15°C° 0 mm 1 m/S 739 mmHg 94%
    02:00 +15°C° 0 mm 1 m/S 739 mmHg 93%
    03:00 +15°C° 0 mm 1 m/S 739 mmHg 93%
    04:00 +15°C° 0 mm 1 m/S 739 mmHg 92%
    05:00 +15°C° 0.1 mm 1 m/S 739 mmHg 90%
    06:00 +16°C° 0.1 mm 2 m/S 739 mmHg 88%
    07:00 +16°C° 0.1 mm 2 m/S 739 mmHg 86%
    08:00 +18°C° 0 mm 2 m/S 739 mmHg 81%
    09:00 +19°C° 0 mm 2 m/S 739 mmHg 75%
    10:00 +20°C° 0 mm 3 m/S 739 mmHg 70%
    11:00 +21°C° 0 mm 3 m/S 739 mmHg 67%
    12:00 +22°C° 0 mm 3 m/S 739 mmHg 65%
    13:00 +24°C° 0 mm 3 m/S 739 mmHg 62%
    14:00 +24°C° 0 mm 3 m/S 739 mmHg 62%
    15:00 +24°C° 0 mm 2 m/S 739 mmHg 62%
    16:00 +24°C° 0 mm 2 m/S 739 mmHg 63%
    17:00 +23°C° 0 mm 2 m/S 739 mmHg 68%
    18:00 +20°C° 0 mm 2 m/S 739 mmHg 74%
    19:00 +19°C° 0 mm 2 m/S 739 mmHg 80%
    20:00 +18°C° 0 mm 2 m/S 739 mmHg 82%
    21:00 +18°C° 0 mm 1 m/S 740 mmHg 84%
    22:00 +16°C° 0 mm 1 m/S 740 mmHg 86%
    23:00 +16°C° 0 mm 1 m/S 740 mmHg 88%

    23 August, Freitag

    Zeit Temperatur Niederschläge Wind Luftdruck Luftfeuchtigkeit
    00:00 +15°C° 0 mm 1 m/S 740 mmHg 89%
    01:00 +15°C° 0 mm 1 m/S 740 mmHg 90%
    02:00 +14°C° 0 mm 1 m/S 740 mmHg 91%
    03:00 +14°C° 0 mm 1 m/S 739 mmHg 92%
    04:00 +14°C° 0 mm 1 m/S 739 mmHg 93%
    05:00 +15°C° 0 mm 2 m/S 739 mmHg 89%
    06:00 +15°C° 0 mm 2 m/S 739 mmHg 86%
    07:00 +16°C° 0 mm 2 m/S 740 mmHg 83%
    08:00 +18°C° 0 mm 3 m/S 739 mmHg 75%
    09:00 +20°C° 0 mm 4 m/S 739 mmHg 68%
    10:00 +22°C° 0 mm 4 m/S 739 mmHg 61%
    11:00 +23°C° 0 mm 4 m/S 739 mmHg 58%
    12:00 +25°C° 0 mm 5 m/S 739 mmHg 56%
    13:00 +26°C° 0 mm 5 m/S 738 mmHg 53%
    14:00 +26°C° 0 mm 5 m/S 738 mmHg 54%
    15:00 +26°C° 0 mm 5 m/S 738 mmHg 55%
    16:00 +26°C° 0 mm 5 m/S 738 mmHg 56%
    17:00 +23°C° 0 mm 4 m/S 737 mmHg 62%
    18:00 +22°C° 0 mm 4 m/S 737 mmHg 68%
    19:00 +20°C° 0 mm 3 m/S 737 mmHg 74%
    20:00 +19°C° 0 mm 3 m/S 737 mmHg 75%
    21:00 +19°C° 0 mm 3 m/S 738 mmHg 77%
    22:00 +18°C° 0 mm 3 m/S 738 mmHg 79%
    23:00 +17°C° 0 mm 2 m/S 738 mmHg 81%
    Mehr zeigen